Wind_Speed
11 9 10 11 11 10 10 10 11 14 16 18 20 22 22 22 23 28 29 31 32 31 31 33 33 32 30 30 31 37 24 29 30 31 28 26 25 25 27 31 30 33 32 30 28 29 28 37 39 39 43 42 44 44
12 13 12 12 13 14 13 12 11 12 13 17 19 20 22 23 23 25 29 30 31 32 30 30 35 35 36 35 35 34 32 32 35 29 31 33 35 36 34 39 31 35 36 34 30 33 37 38 40 46 45 44 46 45
12 14 16 15 14 15 15 16 15 14 14 14 16 20 23 23 23 23 24 28 30 31 31 32 34 31 34 36 36 36 38 36 31 33 34 37 37 35 35 31 34 36 36 33 33 34 41 41 42 45 42 44 43 45
14 14 15 16 17 16 17 17 17 17 17 16 15 16 18 20 23 25 26 26 27 28 31 35 32 32 30 32 33 32 35 28 33 30 32 31 31 34 31 33 34 34 36 35 37 40 42 42 46 44 44 44 45 46
18 17 17 17 18 19 18 18 19 19 19 20 19 19 17 18 19 20 22 24 25 27 29 30 28 31 32 33 32 31 31 31 29 28 30 31 33 35 31 34 33 37 38 38 40 44 42 44 45 44 44 46 48 50
21 22 19 18 19 20 22 20 19 19 20 21 21 22 21 21 20 20 21 22 24 25 25 26 26 27 27 28 28 29 30 30 29 30 31 32 32 31 34 38 39 38 35 41 42 43 44 44 45 46 46 49 51 52
24 23 25 23 21 21 22 23 23 22 21 21 21 22 23 23 23 23 24 24 24 24 24 25 25 26 26 26 27 28 28 29 29 31 32 33 36 33 36 38 41 37 40 41 42 42 43 45 46 48 51 52 53 53
28 27 26 27 26 25 23 23 24 25 25 24 23 22 22 23 24 25 25 25 26 27 28 28 28 25 27 28 29 29 31 32 32 33 33 33 36 36 37 38 35 39 40 41 41 42 44 47 50 51 52 53 55 54
35 32 31 30 29 30 28 27 26 25 25 26 26 26 25 24 23 23 24 26 27 27 27 27 28 31 26 29 30 29 31 31 33 31 34 34 32 37 35 36 38 38 39 41 42 43 46 48 51 52 53 52 52 51
37 39 37 35 33 32 32 33 30 29 27 27 26 27 27 27 25 25 24 24 24 25 25 26 25 27 26 27 28 29 28 29 31 31 31 32 33 37 33 37 37 37 39 41 43 46 49 50 50 49 49 50 52 53
41 41 40 41 39 37 35 34 34 33 31 30 28 27 28 28 27 27 27 26 26 26 25 25 25 25 25 26 27 26 29 29 29 36 26 33 33 29 33 36 37 39 41 43 44 45 45 46 46 47 48 48 48 50
43 42 43 42 43 42 40 39 37 35 35 34 32 30 29 28 28 29 27 27 26 27 25 26 26 28 24 27 28 25 28 28 28 28 27 30 30 32 35 36 38 39 40 40 41 41 41 42 43 46 47 44 41 37
45 44 43 43 43 44 44 43 41 39 37 36 36 35 33 32 31 29 27 26 27 24 24 25 26 26 24 25 25 24 25 27 26 28 30 33 31 34 34 36 36 36 36 36 36 38 38 41 39 34 32 33 35 33
46 46 45 43 42 42 44 45 44 43 40 39 38 36 36 37 37 32 30 30 26 28 26 27 27 27 26 26 25 25 27 28 31 31 37 30 31 32 31 32 33 34 34 35 36 34 35 36 34 32 31 29 28 28
45 45 45 43 42 42 42 43 45 45 44 42 40 39 38 36 31 31 31 32 32 31 29 29 29 29 29 29 29 29 30 32 32 34 33 28 28 28 29 30 31 32 34 33 31 31 31 31 28 29 30 30 29 29
44 44 44 43 43 42 42 43 44 45 46 45 44 41 39 36 36 34 32 31 29 30 31 33 33 32 32 32 30 30 30 30 32 26 28 26 26 28 29 30 31 33 32 29 30 29 31 31 33 33 34 32 31 30
39 40 41 41 40 41 41 42 43 44 46 46 44 42 39 37 37 35 32 33 31 31 29 29 27 28 26 27 27 28 29 29 28 28 26 25 27 28 29 30 32 31 29 31 28 29 28 30 31 30 29 29 32 33
34 33 35 36 37 38 39 41 42 43 43 44 44 44 42 40 37 36 36 35 34 33 33 32 28 27 27 26 27 27 26 27 27 27 27 26 26 28 28 29 29 28 28 30 25 25 27 28 28 27 29 28 26 25
28 29 31 32 33 34 36 37 39 40 41 42 43 42 42 41 40 38 34 35 35 33 33 31 30 28 29 28 27 26 26 28 27 28 27 25 26 28 27 26 25 26 23 24 22 24 23 24 22 25 30 25 20 15
25 26 28 28 30 31 32 33 34 36 38 40 40 41 41 41 41 38 37 36 35 35 34 31 29 30 29 28 25 28 28 27 27 27 27 25 26 27 26 24 24 24 25 21 21 22 23 24 25 26 25 19 15 14
23 22 23 23 24 26 27 28 30 32 33 35 37 37 38 39 38 38 38 37 36 35 34 32 32 32 25 27 27 27 27 27 26 26 26 26 26 26 25 22 22 23 23 24 22 22 24 25 25 24 24 24 24 28
22 21 21 21 21 21 21 22 24 27 28 29 31 32 33 34 35 35 36 36 35 34 34 33 32 29 27 28 28 27 26 24 25 25 25 26 25 25 25 24 24 25 24 25 27 26 25 26 27 26 24 21 23 23
20 20 22 23 28 27 23 24 22 22 22 23 24 23 24 26 27 28 30 30 31 32 33 32 30 29 28 28 27 25 24 24 25 24 24 23 23 24 26 26 26 26 26 25 27 28 29 28 27 26 24 23 23 24
18 17 18 15 14 15 17 20 26 23 23 25 26 27 28 29 30 29 28 28 30 31 32 31 30 28 27 27 26 23 24 23 22 22 23 25 25 23 24 25 25 26 26 28 30 29 26 27 27 26 26 27 28 29
16 17 17 17 17 18 18 18 20 21 20 20 21 23 23 24 26 27 27 26 25 27 28 28 27 26 23 22 23 23 23 23 24 25 25 25 24 22 22 23 23 25 30 30 28 27 27 27 27 27 28 31 32 32
13 14 15 15 15 16 17 17 18 19 21 21 20 20 20 21 22 23 25 24 23 24 24 23 22 22 22 22 22 21 21 20 21 22 23 23 23 23 22 22 24 26 27 28 27 26 26 25 29 31 33 32 30 31
12 13 14 14 14 13 14 15 15 16 18 19 20 20 20 19 20 21 21 20 18 19 19 21 21 20 20 19 20 20 20 19 20 20 22 22 23 22 20 23 29 30 29 27 26 28 31 28 30 30 30 30 30 32
13 13 13 12 12 13 13 14 15 17 19 20 21 20 17 15 15 17 18 18 12 16 16 16 17 16 16 14 16 16 16 17 16 19 20 21 18 20 22 24 29 31 30 29 31 28 28 28 28 28 30 31 31 32
12 12 12 11 12 12 14 16 17 18 21 22 17 16 16 18 20 19 14 13 13 10 10 9 12 13 12 12 12 13 15 16 18 20 20 20 21 24 30 23 29 27 23 22 24 27 27 27 30 30 30 31 31 32
13 13 11 12 13 14 13 16 17 19 22 26 19 19 18 14 28 23 20 15 12 11 10 9 8 8 9 10 13 15 15 16 16 18 20 22 22 17 18 19 18 21 23 25 25 24 26 27 26 27 27 28 27 29
11 5 7 8 10 11 14 17 17 18 20 24 23 22 14 22 21 22 18 14 11 8 7 8 9 8 3 7 2 3 4 6 9 11 12 13 14 14 16 18 20 21 23 25 26 26 27 28 27 27 26 26 26 28
6 6 6 8 12 14 13 14 15 18 22 23 20 24 16 9 15 17 14 13 7 7 5 5 7 5 6 8 6 6 9 11 13 13 13 14 15 17 18 20 22 23 23 23 25 25 24 24 24 24 25 26 27 30
8 8 9 11 14 13 11 13 14 16 20 21 21 20 17 13 12 12 14 9 6 5 4 4 5 7 7 3 6 8 11 15 17 17 17 17 19 20 20 20 21 22 23 23 22 21 21 21 22 24 26 27 27 26
Wind_Direction
231 232 229 220 211 203 198 190 191 195 198 200 202 202 205 209 213 213 214 218 220 225 226 230 230 230 231 234 235 246 241 251 257 260 263 266 262 261 263 268 270 279 279 278 279 280 273 282 291 293 291 294 295 293
239 231 231 233 223 215 208 204 200 196 202 205 206 208 209 213 215 216 217 221 224 227 230 235 235 236 238 241 243 251 255 261 258 264 269 269 269 271 272 279 277 274 276 278 281 273 280 283 289 289 293 296 293 294
241 238 237 232 232 227 219 213 209 210 206 202 207 211 214 217 218 219 220 223 227 231 232 234 237 242 246 245 249 253 259 256 264 266 267 267 268 270 266 269 275 276 278 278 278 281 282 285 285 287 289 287 290 292
247 240 235 236 231 229 227 225 220 214 212 212 210 210 213 217 220 223 225 226 228 231 236 238 241 241 245 247 250 253 256 262 259 265 264 264 265 267 270 274 276 274 281 284 284 283 285 288 288 290 288 290 292 294
247 246 241 237 235 232 229 227 225 225 223 219 216 216 214 216 218 221 224 226 229 232 235 241 239 241 245 247 249 251 254 258 259 260 261 263 263 270 274 270 274 276 283 283 284 286 288 286 288 289 290 292 294 296
247 245 244 241 237 233 231 230 228 227 227 227 226 224 224 224 222 220 221 224 227 231 234 238 237 240 243 246 248 251 254 256 257 258 261 262 267 268 271 276 278 279 284 282 283 285 286 286 288 289 291 293 295 295
252 247 241 243 241 236 232 230 230 231 230 229 229 229 228 227 229 229 228 228 228 229 233 237 235 236 239 241 244 247 250 252 254 257 259 264 268 268 273 276 278 285 281 282 283 285 286 288 289 292 293 294 295 296
252 252 247 240 241 241 236 232 231 231 232 233 234 233 231 231 230 232 233 233 235 236 236 239 243 242 242 244 245 248 252 253 257 261 266 268 272 275 276 277 282 280 282 283 286 287 289 291 293 294 295 296 296 296
251 249 248 247 241 238 241 239 234 233 232 233 235 236 236 237 236 235 235 236 237 238 239 242 244 244 245 248 249 249 254 258 261 265 267 271 272 274 279 279 281 282 285 289 291 292 293 294 296 297 298 298 297 297
249 248 247 245 245 242 239 238 239 237 235 232 233 234 236 237 239 240 240 239 240 240 241 243 245 246 247 250 252 254 255 258 264 264 268 271 273 277 282 280 283 286 289 291 293 294 296 297 298 298 298 299 301 301
252 248 246 244 243 242 241 240 237 237 238 238 235 233 234 236 237 239 241 242 243 244 244 245 247 250 248 250 254 255 259 261 265 268 273 273 272 282 278 283 288 291 293 294 296 297 298 300 301 303 304 304 302 301
251 251 247 244 242 241 241 241 239 237 236 237 238 238 236 236 237 238 239 242 245 246 246 246 247 250 249 252 255 257 261 264 266 274 270 271 280 280 284 288 290 292 294 296 298 300 300 302 304 304 303 304 306 312
250 249 248 246 243 241 239 239 239 238 237 237 237 237 239 240 240 241 239 240 242 243 244 245 246 249 249 252 256 257 261 265 270 271 275 278 283 286 289 290 292 293 295 297 298 300 304 308 307 307 310 313 314 314
249 248 247 245 243 241 239 236 237 237 236 235 236 237 238 239 240 243 244 243 245 243 243 245 248 248 250 250 254 258 262 269 273 276 275 284 283 286 288 289 292 295 297 298 301 306 310 313 312 310 313 317 321 323
247 247 246 244 243 240 240 237 234 235 234 233 234 236 237 239 241 240 240 242 243 244 244 245 246 247 249 252 255 261 267 270 272 274 279 282 281 285 287 292 294 295 298 300 301 306 309 313 313 312 312 311 317 320
245 244 244 244 244 241 238 237 235 233 232 232 232 234 236 238 239 239 238 240 240 242 244 246 248 250 253 257 261 263 265 267 270 273 274 280 284 288 291 292 293 296 299 299 302 303 310 308 305 308 311 309 309 311
241 242 241 241 241 240 237 236 233 231 230 231 231 232 233 234 236 236 237 238 237 239 241 243 247 248 255 253 258 259 259 264 271 273 277 281 285 287 289 292 296 299 302 305 305 302 302 308 308 312 313 311 305 301
237 237 235 236 238 237 235 232 231 230 229 228 227 227 228 230 231 232 233 234 236 238 243 245 248 249 250 253 255 258 262 267 270 275 278 280 284 286 290 295 300 300 302 306 302 304 314 314 310 309 312 311 312 311
232 231 231 232 232 233 233 231 229 228 226 225 226 226 225 227 228 230 231 232 234 237 241 242 245 249 252 253 257 262 263 267 272 275 275 279 282 286 292 297 297 297 301 301 304 313 316 323 323 322 324 308 311 312
226 228 229 228 229 229 228 226 225 223 222 222 223 224 225 226 227 228 229 230 232 235 238 241 244 246 249 255 257 261 265 269 272 273 276 278 281 286 292 294 296 297 300 305 307 311 312 314 314 317 325 317 310 306
224 221 223 223 221 221 220 220 220 220 220 221 221 222 224 225 225 227 227 229 231 234 238 240 243 248 252 256 259 261 265 268 270 272 275 277 283 289 292 295 294 300 300 301 304 308 309 311 315 317 316 318 308 309
219 214 212 209 206 203 206 209 213 214 213 215 218 219 221 223 225 226 227 228 230 233 236 240 243 250 252 255 258 262 267 270 269 269 272 278 285 288 290 292 292 293 294 296 301 302 302 305 312 313 311 309 306 306
213 210 213 225 219 209 206 206 208 206 202 200 204 208 212 216 220 222 225 226 229 232 236 239 243 246 250 254 257 258 261 266 269 269 273 278 281 284 287 290 292 291 292 295 298 302 305 307 311 309 307 309 308 306
210 207 213 215 201 211 213 211 209 215 217 222 228 234 236 237 233 233 235 236 236 237 239 240 241 243 246 250 253 257 260 262 265 267 272 278 284 286 284 282 285 287 291 294 298 300 302 306 306 306 307 309 309 308
198 202 206 209 211 213 214 214 214 215 217 217 218 218 219 222 225 226 227 231 233 233 236 238 239 240 242 245 248 250 255 259 265 271 276 277 280 284 288 289 289 289 289 294 299 300 302 304 305 308 310 311 312 312
187 193 195 197 201 204 208 213 215 215 215 214 213 210 210 214 215 217 220 223 225 225 226 226 230 234 238 239 246 250 254 259 266 269 272 277 279 283 288 291 293 292 293 295 296 300 302 307 309 312 313 313 312 312
193 195 195 197 200 200 203 204 205 204 201 196 192 191 198 201 208 211 213 217 217 218 218 221 225 231 232 234 242 250 257 263 268 271 274 276 277 281 282 279 286 294 297 296 297 300 301 306 309 309 309 311 313 314
175 176 179 184 190 194 193 189 186 183 180 180 181 187 197 194 200 190 194 203 210 198 201 214 220 229 232 236 244 254 261 262 266 269 270 274 274 278 277 280 290 293 291 293 300 306 309 310 310 310 311 314 316 317
167 170 173 174 169 168 168 167 166 168 168 166 166 190 191 193 184 178 179 203 213 206 207 209 212 218 228 236 249 258 264 268 267 270 276 279 277 280 291 286 291 298 297 300 304 305 307 310 311 312 315 317 319 321
157 156 162 174 183 175 170 174 177 182 179 177 172 189 191 181 188 180 185 186 187 192 197 207 208 214 229 249 267 275 276 276 278 276 276 278 280 279 264 280 296 302 301 302 305 305 306 308 309 310 314 318 321 323
159 151 160 167 173 175 165 173 179 183 183 186 195 189 138 145 144 154 161 159 168 176 180 192 202 213 261 240 246 322 328 329 312 304 302 300 300 299 297 297 297 299 304 307 309 311 312 313 316 319 320 321 321 327
151 147 149 145 151 155 160 173 173 168 180 190 197 200 206 188 176 161 167 163 166 179 190 207 215 236 283 327 324 313 311 325 329 321 314 311 308 305 305 307 308 309 310 310 311 313 316 318 319 321 322 321 320 322
154 154 146 144 148 151 151 153 157 164 172 179 182 176 159 148 165 149 153 173 188 202 227 258 259 267 302 328 317 315 313 309 313 317 317 315 314 314 315 314 314 313 313 315 317 318 320 321 322 323 323 323 324 325
Height
5807 5808 5809 5810 5812 5813 5814 5816 5817 5819 5821 5824 5827 5830 5834 5837 5841 5845 5849 5852 5857 5860 5864 5867 5871 5875 5879 5883 5886 5883 5892 5894 5896 5898 5901 5904 5905 5907 5906 5905 5902 5899 5897 5897 5896 5893 5892 5884 5883 5882 5877 5874 5870 5865
5804 5805 5806 5807 5809 5810 5812 5814 5815 5817 5818 5821 5824 5827 5830 5834 5837 5840 5845 5848 5852 5855 5860 5863 5865 5869 5873 5877 5880 5881 5885 5887 5886 5893 5894 5893 5894 5894 5894 5891 5892 5889 5888 5888 5888 5884 5879 5877 5874 5868 5866 5863 5857 5854
5800 5801 5802 5804 5805 5807 5809 5811 5813 5815 5817 5819 5821 5824 5827 5830 5833 5837 5840 5844 5847 5850 5854 5857 5858 5864 5867 5870 5873 5876 5877 5877 5881 5882 5884 5883 5882 5884 5883 5884 5881 5880 5877 5878 5876 5874 5868 5867 5863 5859 5858 5852 5848 5843
5796 5797 5798 5799 5801 5803 5805 5807 5809 5812 5814 5816 5818 5820 5823 5826 5829 5832 5835 5839 5842 5845 5847 5849 5853 5857 5860 5862 5865 5867 5868 5871 5872 5873 5873 5873 5874 5873 5874 5874 5873 5872 5869 5868 5865 5862 5859 5855 5850 5849 5844 5840 5835 5830
5791 5792 5793 5795 5796 5798 5800 5803 5805 5807 5810 5812 5815 5817 5819 5822 5824 5827 5829 5832 5835 5839 5842 5843 5847 5849 5852 5855 5857 5859 5861 5863 5864 5865 5865 5865 5865 5865 5866 5863 5864 5861 5860 5858 5854 5849 5849 5843 5839 5836 5832 5828 5823 5818
5785 5786 5788 5790 5792 5793 5796 5798 5800 5802 5805 5807 5810 5812 5815 5818 5820 5823 5825 5828 5830 5832 5835 5838 5841 5842 5845 5847 5849 5851 5853 5854 5856 5856 5857 5856 5856 5857 5856 5854 5852 5852 5851 5846 5843 5839 5836 5832 5829 5824 5821 5817 5811 5806
5777 5779 5782 5783 5785 5788 5790 5792 5795 5797 5800 5802 5804 5807 5809 5812 5814 5818 5821 5823 5825 5827 5830 5831 5833 5836 5839 5841 5842 5843 5845 5846 5847 5847 5848 5848 5847 5849 5847 5845 5841 5842 5838 5835 5832 5829 5826 5821 5818 5813 5809 5803 5798 5792
5769 5771 5774 5776 5778 5781 5783 5786 5788 5791 5794 5796 5799 5801 5803 5806 5809 5812 5813 5816 5818 5821 5823 5826 5827 5831 5832 5833 5835 5836 5837 5837 5839 5839 5839 5839 5838 5837 5837 5834 5833 5829 5827 5824 5822 5818 5815 5811 5805 5800 5795 5789 5783 5777
5759 5762 5765 5767 5770 5773 5776 5779 5781 5784 5787 5789 5792 5794 5797 5799 5802 5804 5807 5809 5811 5815 5816 5818 5820 5821 5825 5825 5827 5829 5828 5829 5829 5831 5830 5830 5829 5826 5827 5824 5822 5819 5817 5814 5811 5808 5803 5798 5793 5787 5781 5775 5769 5764
5747 5751 5754 5757 5760 5764 5766 5770 5773 5776 5779 5782 5784 5787 5790 5792 5795 5798 5800 5802 5804 5806 5809 5811 5812 5814 5816 5817 5818 5820 5820 5820 5820 5822 5821 5821 5820 5818 5817 5813 5812 5810 5807 5804 5800 5795 5790 5785 5780 5774 5769 5763 5757 5750
5734 5737 5741 5745 5749 5753 5757 5760 5763 5767 5770 5773 5776 5779 5782 5785 5788 5790 5792 5795 5797 5799 5801 5803 5805 5806 5807 5809 5810 5812 5811 5812 5813 5811 5815 5811 5810 5811 5806 5804 5803 5800 5796 5792 5788 5784 5779 5774 5769 5764 5758 5751 5745 5738
5720 5723 5727 5732 5736 5740 5745 5749 5753 5757 5760 5765 5768 5771 5774 5777 5779 5782 5785 5788 5790 5791 5794 5795 5797 5798 5801 5801 5802 5804 5803 5804 5804 5805 5804 5802 5801 5800 5798 5796 5793 5789 5786 5782 5778 5773 5769 5764 5759 5753 5746 5740 5735 5730
5706 5709 5713 5718 5722 5727 5732 5737 5741 5745 5750 5754 5758 5761 5765 5768 5771 5774 5777 5780 5781 5783 5786 5787 5789 5791 5793 5794 5794 5796 5795 5796 5796 5795 5794 5793 5793 5790 5788 5785 5782 5779 5775 5772 5768 5764 5759 5754 5748 5742 5737 5732 5728 5722
5690 5694 5699 5704 5708 5712 5717 5723 5728 5733 5738 5742 5746 5751 5754 5758 5761 5765 5769 5770 5775 5775 5778 5779 5781 5783 5785 5786 5787 5787 5788 5788 5787 5787 5783 5786 5783 5781 5778 5776 5773 5769 5765 5762 5758 5755 5750 5744 5739 5735 5730 5725 5720 5715
5676 5680 5685 5689 5694 5699 5703 5709 5714 5720 5725 5730 5735 5739 5744 5747 5752 5756 5759 5761 5764 5767 5769 5771 5773 5775 5776 5778 5778 5779 5779 5778 5778 5776 5775 5776 5773 5772 5769 5766 5763 5760 5757 5754 5750 5746 5742 5737 5732 5727 5723 5719 5714 5709
5661 5666 5671 5675 5680 5685 5690 5695 5700 5706 5712 5717 5722 5728 5733 5738 5742 5746 5749 5752 5755 5757 5760 5762 5764 5766 5767 5768 5770 5770 5770 5769 5767 5769 5766 5766 5765 5762 5760 5757 5754 5751 5748 5745 5742 5738 5734 5729 5724 5720 5716 5711 5707 5702
5647 5652 5657 5661 5666 5671 5676 5681 5687 5692 5698 5705 5711 5716 5722 5727 5731 5735 5740 5742 5746 5749 5751 5753 5755 5756 5759 5759 5760 5761 5761 5760 5761 5760 5759 5758 5756 5754 5752 5749 5746 5743 5739 5736 5733 5729 5725 5721 5716 5713 5709 5704 5699 5694
5636 5641 5645 5649 5654 5658 5663 5668 5674 5680 5687 5693 5699 5703 5709 5715 5721 5725 5729 5733 5736 5739 5741 5744 5747 5749 5750 5751 5752 5752 5753 5752 5752 5751 5751 5750 5748 5746 5744 5741 5738 5734 5732 5728 5725 5721 5717 5713 5709 5705 5701 5696 5691 5687
5627 5631 5635 5639 5644 5648 5652 5657 5663 5669 5675 5681 5686 5693 5698 5704 5709 5715 5720 5723 5726 5730 5733 5736 5738 5741 5741 5742 5743 5744 5744 5744 5744 5743 5742 5742 5740 5738 5736 5733 5730 5727 5725 5722 5719 5715 5711 5707 5704 5700 5694 5689 5685 5681
5620 5623 5627 5631 5635 5639 5643 5649 5654 5659 5664 5670 5676 5682 5688 5693 5699 5705 5709 5714 5717 5720 5723 5727 5730 5731 5733 5734 5736 5735 5735 5736 5736 5735 5734 5734 5732 5730 5728 5726 5723 5720 5718 5715 5712 5708 5705 5702 5698 5694 5689 5685 5680 5678
5613 5617 5621 5625 5628 5632 5637 5641 5645 5651 5657 5662 5667 5673 5679 5684 5690 5695 5699 5704 5708 5712 5715 5718 5720 5721 5726 5726 5727 5727 5727 5727 5727 5727 5726 5725 5724 5722 5720 5718 5716 5714 5711 5708 5706 5703 5699 5695 5692 5688 5684 5680 5676 5674
5609 5613 5617 5620 5624 5628 5632 5636 5641 5645 5650 5655 5661 5665 5671 5676 5681 5686 5690 5695 5700 5703 5706 5709 5712 5715 5717 5718 5719 5719 5719 5720 5720 5720 5719 5717 5716 5713 5712 5710 5708 5707 5704 5701 5698 5696 5693 5689 5685 5681 5678 5674 5671 5667
5605 5609 5613 5616 5621 5624 5629 5633 5637 5642 5646 5651 5656 5660 5665 5670 5674 5679 5683 5688 5691 5695 5698 5701 5705 5707 5709 5710 5711 5712 5712 5712 5712 5712 5711 5710 5709 5707 5705 5703 5701 5699 5697 5694 5691 5688 5685 5682 5678 5675 5671 5667 5664 5661
5603 5606 5610 5612 5616 5620 5624 5627 5633 5637 5642 5646 5651 5655 5660 5664 5669 5673 5677 5681 5684 5688 5691 5695 5697 5699 5701 5702 5703 5705 5705 5705 5705 5705 5704 5703 5702 5700 5698 5696 5694 5692 5689 5686 5683 5681 5678 5674 5670 5667 5663 5660 5657 5653
5603 5606 5609 5612 5615 5619 5622 5626 5630 5633 5638 5642 5646 5650 5654 5658 5662 5666 5671 5675 5677 5681 5684 5687 5690 5692 5695 5695 5696 5697 5698 5698 5698 5697 5697 5696 5694 5693 5691 5689 5686 5683 5680 5678 5676 5673 5669 5666 5662 5659 5656 5652 5648 5644
5601 5604 5607 5610 5613 5616 5619 5622 5626 5629 5633 5637 5642 5646 5651 5653 5657 5661 5664 5667 5670 5674 5677 5681 5683 5685 5686 5688 5689 5690 5691 5692 5691 5691 5689 5688 5687 5685 5684 5682 5679 5677 5674 5671 5668 5665 5662 5659 5654 5651 5647 5644 5640 5635
5601 5603 5606 5608 5611 5614 5617 5620 5623 5626 5630 5634 5638 5643 5646 5649 5653 5656 5659 5663 5666 5668 5672 5675 5677 5678 5680 5682 5683 5684 5685 5685 5685 5684 5682 5681 5680 5679 5678 5676 5672 5669 5666 5664 5661 5657 5654 5651 5647 5643 5639 5636 5632 5628
5600 5603 5606 5608 5610 5613 5615 5618 5621 5624 5628 5632 5637 5640 5643 5646 5649 5652 5656 5660 5662 5664 5668 5670 5671 5673 5675 5677 5679 5679 5679 5679 5678 5677 5676 5675 5674 5672 5671 5669 5666 5663 5659 5655 5653 5649 5646 5643 5640 5636 5632 5628 5623 5620
5601 5604 5606 5608 5610 5613 5615 5618 5622 5625 5629 5633 5637 5640 5643 5645 5648 5651 5653 5657 5660 5663 5666 5668 5669 5670 5672 5673 5674 5674 5673 5672 5672 5671 5670 5669 5668 5667 5665 5661 5656 5655 5652 5650 5648 5643 5640 5636 5632 5628 5624 5620 5616 5612
5603 5605 5608 5610 5612 5615 5617 5620 5623 5626 5629 5633 5636 5638 5641 5643 5647 5652 5655 5658 5660 5662 5664 5665 5666 5668 5670 5670 5670 5669 5668 5667 5666 5665 5664 5662 5661 5659 5657 5654 5651 5648 5646 5642 5639 5637 5634 5629 5626 5623 5619 5614 5610 5605
5605 5607 5608 5609 5611 5614 5616 5620 5623 5627 5630 5633 5635 5640 5642 5644 5648 5651 5655 5658 5660 5662 5663 5664 5665 5667 5667 5666 5666 5665 5664 5663 5662 5660 5659 5657 5655 5653 5651 5648 5646 5643 5639 5636 5632 5629 5625 5622 5618 5614 5610 5606 5602 5598
5607 5608 5610 5611 5613 5615 5617 5619 5623 5627 5630 5634 5638 5642 5646 5649 5652 5653 5656 5659 5661 5662 5663 5664 5664 5665 5665 5663 5663 5662 5661 5660 5658 5657 5654 5652 5650 5647 5645 5642 5639 5636 5633 5630 5626 5623 5619 5615 5611 5607 5603 5600 5596 5592
5609 5610 5611 5613 5615 5617 5619 5621 5624 5627 5632 5637 5641 5645 5649 5651 5653 5656 5658 5659 5661 5661 5663 5663 5664 5663 5662 5661 5660 5659 5658 5656 5654 5651 5649 5646 5644 5641 5638 5635 5633 5630 5627 5623 5620 5617 5613 5610 5606 5602 5598 5594 5590 5586